sat.trackr.live / text

‹ back to catalog

STARLINK-2701

NORAD 48656 · 2021-044U

PAYLOAD ACTIVE UNKNOWN

§ Identity

Operator
Country
US
Launch date
2021-05-26
Launch site
AFETR
Launch vehicle
Mass (kg)
RCS (m²)

Purposes: comms

External: N2YO · Heavens-Above · Gunter

§ Orbital elements

Epoch: 2026-05-25T04:20:25.431360Z

Period
94.01 min
Inclination
53.1588°
Eccentricity
0.0001266
Mean motion
15.31696393 rev/d
Perigee alt
469.9 km
Apogee alt
471.6 km
Semi-major
6,848.9 km
B*
2.9325e-5
RAAN
118.0713°
Arg perigee
93.8690°
Mean anomaly
266.2456°
Rev number
27,554

§ Raw data

STARLINK-27011 48656U 21044U   26145.18084990  .00000545  00000+0  29325-4 0  99952 48656  53.1588 118.0713 0001266  93.8690 266.2456 15.31696393275542

JSON: /api/v1/satellites/48656 · /tle

For live sub-satellite position, see the globe view (requires WebGL).

§ Visibility from observer

Set your observer location to see the next 7 days of passes ≥ 10°. The values pass through the URL so the page stays shareable.

No JS? Fill the form by hand. The geolocation button needs JavaScript.